Voltar ao catálogo

ARIANE 5 R/B

AtivoHEO
NORAD 36034·ROCKET BODY·🇫🇷 France

Lançado Oct 29, 2009 de Guiana Space Centre

Loading…

Próximas Passagens (próximas 24 horas)

TLE

AtualizadoSource: Space-Track

Época: Sep 14, 2026, 04:16 UTC

1 36034U 09058C   26257.17845776  .00042533  54531-6  10218-2 0  9990
2 36034   6.2432 244.3195 6074642 305.2208  11.8902  4.01254101195488

Acompanhe ARIANE 5 R/B em tempo real com AllMySat

Download on the App Store